Starlink 6379

operational
NORAD ID: 57343 Int'l Des: 2023-099 Owner: SPXS Country: US Constellation: starlink
LEOCIRCULAR

About Starlink 6379

Description loading...

Live Position

Loading 3D Globe...

Upcoming Passes

Altitude History

Altitude vs Time

uPlot chart will show altitude changes over time

Two-Line Element Set

1 57343U 23099R 26033.43168232 .00000187 00000-0 28899-4 0 9994
2 57343 43.0044 80.4866 0001122 264.7089 95.3625 15.02534437140811
Epoch: Feb 2, 2026 • Age: 15 hours

Current Status

Altitude 558.3 km
Velocity 7.58 km/s
Sub-Earth Point 9.42°N, 91.79°E
Launch Date Jul 16, 2023
Age 2.5 years
Type internet

Technical Details

Classification Payload
Mass 305.00 kg
Dry Mass 290.00 kg
Total Mass 305.00 kg
Length 0.20 m
Diameter 2.80 m
Span 9.00 m
Shape Box + pan
Manufacturer SPXS
Bus Type Starlink
Phase Status In Orbit
Owner/State SPXS/US

Large Constellations

Loading constellations...